[[{"header":{"parameterUnit":"m.s-1","parameterCategory":1,"la1":30.2991,"la2":30.254,"lo1":-89.0895,"lo2":-89.0444,"dy":0.0017,"dx":0.0017,"nx":28,"ny":28,"refTime":"2024-06-03T09:00:00:Z","depth":0,"parameterNumber":2,"parameterNumberName":"U-component_of_WINDS"},"data":[0,0,0,0,0,0,0,0,0,0,0,0,0,0,0,0,0,0,0,0,0,0,0,0,0,0,0,0,0,0,0,0,0,0,0,0,0,0,0,0,0,0,0,0,0,0,0,0,0,0,0,0,0,0,0,0,0,0,-2.747,-2.747,0,-2.7524,-2.7524,-2.7525,-2.7499,-2.7498,-2.7497,-2.7495,-2.7551,-2.7553,-2.7556,0,0,0,0,0,0,0,0,0,0,0,0,0,-2.7344,-2.7347,-2.747,-2.747,-2.7471,-2.7524,-2.7524,-2.7525,-2.75,-2.7498,-2.7496,-2.7495,-2.755,-2.7553,-2.7556,0,0,0,0,0,0,0,0,0,0,0,0,0,-2.7399,-2.7348,-2.747,-2.7465,-2.7465,-2.7524,-2.7525,-2.7525,-2.75,-2.7498,-2.7496,-2.7494,-2.7549,-2.7553,-2.7557,-2.7624,0,0,-2.757,-2.7571,0,0,0,0,0,0,0,0,-2.7396,-2.7403,-2.7465,-2.7465,-2.7465,-2.7503,-2.7501,-2.7558,-2.75,-2.7487,-2.7495,-2.7493,-2.7536,-2.7541,-2.7556,-2.7626,-2.7629,-2.757,-2.7572,-2.7574,-2.7575,0,0,0,0,0,0,0,-2.7392,-2.7401,-2.7491,-2.7466,-2.7466,-2.746,-2.7465,-2.7511,-2.7522,-2.7488,-2.7486,-2.7493,-2.7536,-2.7552,-2.7557,-2.763,-2.757,-2.7573,-2.7576,-2.7578,-2.7757,-2.776,0,0,0,0,0,0,-2.7388,-2.7398,-2.7489,-2.7493,-2.7425,-2.7464,-2.747,-2.7493,-2.7522,-2.7524,-2.7494,-2.7491,-2.7546,-2.7552,-2.7559,-2.7639,-2.7574,-2.7578,-2.758,-2.7755,-2.7758,-2.776,0,0,0,0,0,0,-2.7386,-2.7397,-2.7487,-2.7445,-2.7456,-2.7468,-2.7494,-2.7495,-2.7511,-2.7527,-2.7529,-2.7509,-2.7545,-2.7553,-2.7608,-2.764,-2.758,-2.7584,-2.7752,-2.7756,-2.7759,-2.7799,0,0,0,0,0,0,-2.7382,-2.7396,-2.7421,-2.7446,-2.7458,-2.7535,-2.7496,-2.7497,-2.7518,-2.7515,-2.7541,-2.7543,-2.7544,-2.7602,-2.7612,-2.7645,-2.7587,-2.7749,-2.7754,-2.7758,-2.7795,-2.7803,-2.7811,0,0,0,0,0,-2.7378,-2.743,-2.7423,-2.7434,-2.749,-2.7537,-2.7544,-2.7544,-2.7521,-2.7546,-2.7557,-2.7542,-2.7636,-2.7608,-2.7619,-2.7654,-2.7747,-2.7753,-2.7758,-2.7791,-2.7802,-2.7811,0,0,0,0,0,0,-2.7409,-2.7433,-2.7425,-2.7487,-2.751,-2.7532,-2.7564,-2.7555,-2.7585,-2.758,-2.7579,-2.7585,-2.7641,-2.7653,-2.7621,-2.772,-2.7688,-2.7696,-2.771,-2.772,-2.7728,-2.7723,-2.759,0,0,0,0,0,-2.7424,-2.7459,-2.7479,-2.7532,-2.7544,-2.7552,-2.7573,-2.757,-2.7594,-2.7604,-2.7618,-2.7642,-2.7676,-2.7699,-2.7732,-2.7797,-2.7802,-2.7827,-2.7835,-2.7841,-2.7847,-2.7882,-2.7893,-2.7777,-2.7777,-2.7777,0,0,-2.7453,-2.7471,-2.7493,-2.7538,-2.7556,-2.7593,-2.7561,-2.7601,-2.7628,-2.761,-2.7662,-2.7674,-2.77,-2.776,-2.7787,-2.7772,-2.7881,-2.7848,-2.7853,-2.7855,-2.7889,-2.79,-2.791,-2.7781,-2.778,-2.778,0,0,-2.7526,-2.7543,-2.7589,-2.7607,-2.7634,-2.764,-2.7651,-2.7675,-2.7682,-2.7734,-2.7721,-2.7754,-2.7814,-2.7833,-2.785,-2.7931,-2.7919,-2.7942,-2.7983,-2.8018,-2.8027,-2.8035,-2.8063,-2.8073,-2.7949,-2.7949,-2.7949,0,-2.7559,-2.7614,-2.7613,-2.7655,-2.7675,-2.766,-2.7707,-2.7725,-2.7761,-2.7775,-2.7758,-2.7832,-2.7849,-2.7913,-2.7933,-2.7948,-2.7961,-2.7938,-2.8026,-2.8034,-2.8041,-2.8068,-2.8079,-2.7951,-2.7951,-2.7951,-2.7951,0,-2.7653,-2.7692,-2.7726,-2.7761,-2.7785,-2.7829,-2.7835,-2.786,-2.7856,-2.7863,-2.7917,-2.7937,-2.7973,-2.7989,-2.7985,-2.8053,-2.8042,-2.8025,-2.7993,-2.8055,-2.808,-2.809,-2.7955,-2.7954,-2.7953,-2.7953,0,0,-2.7746,-2.7781,-2.7793,-2.7809,-2.7838,-2.7868,-2.7912,-2.7947,-2.7968,-2.7994,-2.803,-2.8082,-2.8066,-2.8086,-2.8085,-2.8115,-2.8178,-2.8095,-2.8095,-2.8108,-2.8252,-2.8264,-2.8276,-2.817,-2.8172,-2.8174,-2.825,0,-2.7819,-2.7895,-2.7896,-2.7965,-2.8001,-2.7988,-2.8026,-2.8048,-2.8057,-2.8088,-2.8098,-2.8134,-2.8111,-2.8123,-2.8153,-2.8164,-2.8206,-2.8158,-2.8203,-2.8205,-2.8195,-2.8289,-2.8301,-2.8372,-2.826,-2.8261,-2.8263,0,-2.7915,-2.7944,-2.8017,-2.8041,-2.8056,-2.809,-2.8123,-2.8153,-2.8178,-2.8183,-2.8205,-2.82,-2.8244,-2.8212,-2.8273,-2.824,-2.8259,-2.8268,-2.827,-2.8273,-2.8236,-2.8293,-2.8395,-2.8405,-2.8278,-2.8277,-2.8276,0,-2.7974,-2.8031,-2.8082,-2.8097,-2.8126,-2.815,-2.8164,-2.8187,-2.8208,-2.8238,-2.8251,-2.8286,-2.8304,-2.833,-2.8334,-2.8311,-2.8396,-2.8364,-2.84,-2.84,-2.8417,-2.8416,-2.8521,-2.8431,-2.8431,-2.8431,-2.8431,0,-2.8055,-2.81,-2.8109,-2.814,-2.819,-2.8192,-2.8241,-2.8253,-2.8274,-2.8307,-2.8299,-2.833,-2.8334,-2.8367,-2.8371,-2.842,-2.8429,-2.8433,-2.8433,-2.8433,-2.8433,-2.8444,-2.8439,-2.8434,-2.8433,-2.8433,-2.8432,0,-2.8129,-2.8137,-2.8191,-2.8215,-2.8222,-2.8258,-2.8278,-2.8308,-2.8317,-2.8359,-2.8369,-2.8382,-2.842,-2.8427,-2.8472,-2.8475,-2.8534,-2.853,-2.8525,-2.8524,-2.856,-2.8556,-2.8676,-2.8691,-2.8592,-2.8593,-2.8594,0,-2.8179,-2.8214,-2.8241,-2.8263,-2.8278,-2.8313,-2.8335,-2.8338,-2.8361,-2.8393,-2.8419,-2.8456,-2.8486,-2.8547,-2.8561,-2.8595,-2.8591,-2.8631,-2.8596,-2.8595,-2.8591,-2.8588,-2.8591,-2.8637,-2.8638,-2.8639,-2.864,0,-2.8268,-2.8271,-2.8302,-2.8336,-2.8362,-2.8389,-2.8414,-2.8432,-2.8439,-2.8465,-2.8504,-2.8527,-2.8573,-2.861,-2.8645,-2.8659,-2.8651,-2.8651,-2.8661,-2.866,-2.8656,-2.8658,-2.8542,-2.8648,-2.8647,-2.8646,-2.8646,-2.8646,-2.8331,-2.8361,-2.8385,-2.8421,-2.844,-2.8464,-2.8493,-2.8505,-2.8538,-2.8575,-2.8575,-2.8618,-2.8642,-2.8688,-2.8705,-2.8738,-2.8725,-2.874,-2.8744,-2.8747,-2.875,-2.8652,-2.8744,-2.8744,-2.8744,-2.8744,-2.8744,0,-2.8419,-2.8434,-2.8467,-2.8502,-2.8531,-2.8521,-2.8548,-2.8572,-2.861,-2.8633,-2.8663,-2.8708,-2.8744,-2.8761,-2.8796,-2.882,-2.8817,-2.8829,-2.8826,-2.883,-2.8759,-2.8747,-2.8831,-2.8831,-2.8831,-2.8831,-2.8831,-2.8831,-2.8468,-2.8517,-2.8523,-2.8582,-2.8597,-2.8638,-2.8654,-2.8676,-2.8695,-2.8745,-2.8775,-2.8786,-2.8807,-2.8844,-2.8877,-2.8881,-2.8894,-2.8908,-2.891,-2.8844,-2.8835,-2.8826,-2.8814,-2.8911,-2.8911,-2.8978,-2.8978,-2.8979]},{"header":{"parameterUnit":"m.s-1","parameterCategory":1,"la1":30.2991,"la2":30.254,"lo1":-89.0895,"lo2":-89.0444,"dy":0.0017,"dx":0.0017,"nx":28,"ny":28,"refTime":"2024-06-03T09:00:00:Z","depth":0,"parameterNumber":3,"parameterNumberName":"V-component_of_WINDS"},"data":[0,0,0,0,0,0,0,0,0,0,0,0,0,0,0,0,0,0,0,0,0,0,0,0,0,0,0,0,0,0,0,0,0,0,0,0,0,0,0,0,0,0,0,0,0,0,0,0,0,0,0,0,0,0,0,0,0,0,3.4913,3.4912,0,3.488,3.4879,3.4879,3.4887,3.4888,3.4888,3.4889,3.485,3.4848,3.4846,0,0,0,0,0,0,0,0,0,0,0,0,0,3.4979,3.4978,3.4913,3.4912,3.4912,3.488,3.4879,3.4879,3.4887,3.4888,3.4889,3.4889,3.485,3.4848,3.4846,0,0,0,0,0,0,0,0,0,0,0,0,0,3.4949,3.4978,3.4913,3.4912,3.4912,3.488,3.4879,3.4879,3.4887,3.4888,3.4889,3.489,3.4851,3.4848,3.4846,3.4811,0,0,3.4838,3.4837,0,0,0,0,0,0,0,0,3.495,3.4946,3.4913,3.4912,3.4912,3.4889,3.4888,3.4856,3.4887,3.4896,3.4889,3.489,3.4861,3.4858,3.485,3.4809,3.4807,3.4838,3.4837,3.4836,3.4835,0,0,0,0,0,0,0,3.4952,3.4948,3.4899,3.4912,3.4912,3.4912,3.4909,3.4882,3.4873,3.4895,3.4896,3.4892,3.4861,3.4852,3.4849,3.4806,3.4838,3.4836,3.4834,3.4833,3.4736,3.4735,0,0,0,0,0,0,3.4956,3.4949,3.4901,3.4898,3.4934,3.491,3.4907,3.4895,3.4874,3.4872,3.4891,3.4893,3.4856,3.4852,3.4847,3.4805,3.4836,3.4833,3.4832,3.4737,3.4736,3.4735,0,0,0,0,0,0,3.4957,3.4951,3.4902,3.4924,3.4918,3.4908,3.4895,3.4894,3.4885,3.4871,3.4869,3.4884,3.4856,3.4851,3.482,3.4804,3.4832,3.483,3.4738,3.4737,3.4735,3.472,0,0,0,0,0,0,3.4959,3.4952,3.4939,3.4924,3.4917,3.4876,3.4894,3.4892,3.4881,3.4882,3.4863,3.4861,3.4857,3.4824,3.4818,3.4801,3.4828,3.474,3.4738,3.4736,3.4722,3.4718,3.4715,0,0,0,0,0,3.4961,3.4935,3.4938,3.4932,3.4901,3.4876,3.4871,3.4869,3.4879,3.4866,3.4858,3.4861,3.4807,3.4821,3.4814,3.4796,3.4741,3.4738,3.4736,3.4724,3.4719,3.4715,0,0,0,0,0,0,3.4946,3.4933,3.4936,3.4904,3.4891,3.4877,3.486,3.4864,3.4846,3.4848,3.4844,3.4839,3.4808,3.4799,3.4815,3.4761,3.4775,3.4771,3.4768,3.4764,3.476,3.4763,3.4826,0,0,0,0,0,3.4939,3.4921,3.491,3.4883,3.4876,3.4869,3.4858,3.4858,3.4843,3.4837,3.4826,3.4811,3.479,3.4776,3.4757,3.4721,3.4717,3.4706,3.4702,3.4699,3.4696,3.4677,3.4672,3.4727,3.4727,3.4727,0,0,3.4924,3.4915,3.4903,3.4879,3.4869,3.485,3.4864,3.4843,3.4828,3.4833,3.4804,3.4796,3.4778,3.4745,3.473,3.4737,3.468,3.4696,3.4694,3.4692,3.4674,3.4668,3.4664,3.4725,3.4725,3.4725,0,0,3.4887,3.4878,3.4855,3.4845,3.4831,3.4826,3.4821,3.4807,3.4802,3.4773,3.4777,3.4759,3.4724,3.4711,3.47,3.4661,3.4663,3.4654,3.4635,3.4617,3.4613,3.4609,3.4595,3.459,3.4651,3.4651,3.4651,0,3.4869,3.4842,3.4842,3.4821,3.481,3.4817,3.4793,3.4782,3.4761,3.4753,3.4761,3.4719,3.4707,3.4672,3.4662,3.4653,3.4646,3.4656,3.4614,3.461,3.4606,3.4593,3.4587,3.465,3.465,3.465,3.465,0,3.4821,3.4802,3.4785,3.4767,3.4754,3.4732,3.4728,3.4715,3.4716,3.4711,3.4682,3.4669,3.4647,3.4638,3.4638,3.4603,3.4608,3.4615,3.4629,3.46,3.4587,3.4582,3.4648,3.4649,3.4649,3.4649,0,0,3.4772,3.4756,3.475,3.4742,3.4727,3.4712,3.4689,3.467,3.4659,3.4645,3.4626,3.4597,3.4604,3.4591,3.459,3.4574,3.4544,3.4583,3.4582,3.4576,3.4505,3.45,3.4494,3.4546,3.4545,3.4544,3.4506,0,3.4734,3.4696,3.4697,3.4661,3.4644,3.465,3.4631,3.4619,3.4614,3.4597,3.4591,3.4571,3.4581,3.4574,3.4559,3.4551,3.4529,3.4553,3.4527,3.4526,3.4531,3.4487,3.4481,3.4446,3.4501,3.4501,3.45,0,3.4683,3.467,3.4634,3.4623,3.4615,3.4598,3.4581,3.4565,3.4552,3.4549,3.4537,3.4538,3.4515,3.453,3.4498,3.4514,3.4504,3.4498,3.4497,3.4494,3.4511,3.4482,3.4434,3.4429,3.4492,3.4493,3.4493,0,3.4651,3.4624,3.4599,3.4592,3.4578,3.4566,3.456,3.4548,3.4537,3.4522,3.4514,3.4496,3.4486,3.4471,3.4467,3.4479,3.4435,3.445,3.4431,3.4431,3.4421,3.4421,3.437,3.4414,3.4414,3.4415,3.4415,0,3.4608,3.4586,3.4585,3.4569,3.4544,3.4545,3.4519,3.4514,3.4503,3.4486,3.449,3.4474,3.447,3.4453,3.445,3.4423,3.4418,3.4415,3.4414,3.4414,3.4415,3.4407,3.4409,3.4413,3.4413,3.4414,3.4414,0,3.4568,3.4566,3.4539,3.453,3.4527,3.4509,3.45,3.4485,3.4481,3.4459,3.4454,3.4448,3.4428,3.4423,3.4398,3.4396,3.4365,3.4367,3.437,3.437,3.4352,3.4354,3.4293,3.4286,3.4335,3.4335,3.4335,0,3.454,3.4523,3.4513,3.4503,3.4496,3.4479,3.4469,3.4469,3.4457,3.4442,3.4429,3.441,3.4395,3.4362,3.4354,3.4336,3.4337,3.4317,3.4334,3.4335,3.4336,3.4337,3.4336,3.4313,3.4313,3.4312,3.4312,0,3.4491,3.4492,3.4477,3.4463,3.4451,3.4439,3.4428,3.4419,3.4417,3.4404,3.4385,3.4373,3.435,3.433,3.4312,3.4304,3.4307,3.4307,3.4302,3.4302,3.4304,3.4303,3.4361,3.4308,3.4309,3.4309,3.4309,3.4309,3.4456,3.4442,3.4433,3.4417,3.4409,3.4399,3.4385,3.438,3.4365,3.4347,3.4347,3.4326,3.4314,3.4291,3.4282,3.4265,3.4271,3.4263,3.4261,3.4259,3.4257,3.4308,3.4261,3.4261,3.4262,3.4262,3.4262,0,3.4408,3.4403,3.4388,3.4373,3.4361,3.4368,3.4356,3.4344,3.4327,3.4316,3.4302,3.428,3.4262,3.4254,3.4236,3.4223,3.4225,3.4219,3.4219,3.4217,3.4253,3.426,3.4218,3.4218,3.4218,3.4218,3.4218,3.4218,3.4381,3.4358,3.4357,3.433,3.4325,3.4306,3.4299,3.4289,3.4281,3.4257,3.4243,3.4239,3.4229,3.4211,3.4194,3.4192,3.4185,3.4178,3.4177,3.421,3.4215,3.4219,3.4225,3.4177,3.4177,3.4143,3.4143,3.4142]}]]